Date,TemperatureHighF,TemperatureAvgF,TemperatureLowF,DewpointHighF,DewpointAvgF,DewpointLowF,HumidityHigh,HumidityAvg,HumidityLow,PressureMaxIn,PressureMinIn,WindSpeedMaxMPH,WindSpeedAvgMPH,GustSpeedMaxMPH,PrecipitationSumIn
2013-1-1,50,48,45,49,40,27,98,77,44,30.13,29.96,7,2,12,0.22
2013-1-2,49,45,40,49,44,39,99,95,83,30.23,29.95,9,3,13,0.32
2013-1-3,45,40,30,39,36,29,97,87,68,30.31,30.20,5,1,8,0.00
2013-1-4,51,39,28,29,25,20,97,63,29,30.36,30.23,9,3,17,0.00
2013-1-5,50,39,27,32,26,21,83,61,38,30.43,30.31,5,1,11,0.00
2013-1-6,50,43,36,40,37,30,95,79,59,30.30,30.09,5,1,7,0.01
2013-1-7,53,38,27,34,31,26,97,77,45,30.48,30.21,10,2,14,0.00
2013-1-8,55,41,28,42,35,27,97,82,49,30.52,30.42,3,0,5,0.00
2013-1-9,69,51,35,50,44,34,98,79,51,30.48,30.38,6,1,10,0.00
2013-1-10,66,52,43,49,45,39,97,78,46,30.57,30.44,7,2,12,0.00
2013-1-11,53,48,43,53,44,32,100,88,55,30.49,30.18,5,1,10,0.38
2013-1-12,72,58,51,64,56,51,100,94,72,30.20,30.13,4,0,7,0.01
2013-1-13,75,63,55,66,59,54,100,87,62,30.18,30.07,7,2,10,0.01
2013-1-14,70,64,59,63,61,56,97,88,77,30.19,30.10,6,1,8,0.00
2013-1-15,62,47,45,62,46,44,99,97,95,30.28,30.10,9,5,16,0.02
2013-1-16,51,47,44,51,47,44,100,100,99,30.11,30.00,7,2,11,0.14
2013-1-17,52,47,33,52,46,32,100,99,95,30.15,29.94,21,6,28,1.23
2013-1-18,47,37,28,34,29,22,99,78,39,30.58,30.17,9,3,18,0.23
2013-1-19,55,37,23,34,28,22,97,75,32,30.56,30.20,6,1,10,0.01
2013-1-20,65,50,33,38,32,29,96,55,28,30.20,30.00,10,4,17,0.00
2013-1-21,60,44,28,36,28,15,97,58,27,30.12,29.89,10,3,17,0.00
2013-1-22,44,35,24,17,6,-4,50,31,17,30.34,29.98,12,6,19,0.00
2013-1-23,41,28,17,18,11,2,86,52,26,30.43,30.10,8,2,14,0.00
2013-1-24,36,31,22,26,15,2,77,52,24,30.57,29.99,16,6,24,0.00
2013-1-25,28,24,19,27,16,6,94,73,41,30.59,30.16,5,1,8,0.08
2013-1-26,39,31,25,34,28,24,97,90,73,30.44,30.14,5,1,7,0.25
2013-1-27,41,31,24,30,26,22,97,83,57,30.65,30.44,6,1,10,0.02
2013-1-28,54,43,30,49,36,27,92,79,62,30.56,30.26,9,2,16,0.02
2013-1-29,74,60,48,58,52,47,94,78,53,30.26,30.10,12,4,15,0.00
2013-1-30,73,67,59,65,62,57,96,84,72,30.10,29.41,18,10,30,0.04
2013-1-31,69,48,32,64,31,17,94,55,27,30.06,29.40,19,9,33,0.46
2013-2-1,42,36,26,28,13,0,75,41,22,30.43,29.93,19,7,34,0.00
2013-2-2,45,33,18,36,13,7,84,47,25,30.45,30.08,11,3,20,0.00
2013-2-3,49,43,35,37,30,23,88,62,41,30.07,29.87,10,4,19,0.00
2013-2-4,49,37,26,27,23,16,87,58,31,30.17,30.00,6,2,11,0.00
2013-2-5,63,47,38,36,32,27,84,59,31,30.04,29.88,9,3,17,0.00
2013-2-6,63,45,30,38,30,23,96,61,23,30.29,29.99,10,2,17,0.00
2013-2-7,50,42,36,43,38,34,97,84,67,30.36,30.01,10,5,14,0.38
2013-2-8,56,47,40,45,40,28,98,80,48,30.06,29.81,16,8,22,0.89
2013-2-9,53,41,28,29,23,16,82,53,24,30.39,30.06,12,4,17,0.00
2013-2-10,54,39,24,40,24,19,90,60,27,30.52,30.25,6,1,11,0.02
2013-2-11,63,56,45,61,53,40,99,90,81,30.24,29.93,10,4,17,0.04
2013-2-12,62,55,48,55,36,24,90,53,25,30.09,29.92,10,3,17,0.00
2013-2-13,49,47,44,48,44,35,98,91,64,29.97,29.64,12,2,18,0.28
2013-2-14,53,43,31,37,33,29,96,71,46,30.09,29.84,8,2,12,0.00
2013-2-15,64,44,28,40,32,27,98,68,28,30.12,29.94,7,1,17,0.00
2013-2-16,47,38,31,37,33,29,97,86,64,29.99,29.84,9,5,18,0.39
2013-2-17,38,30,23,29,14,5,95,54,26,30.31,29.94,17,7,30,0.02
2013-2-18,52,35,17,26,18,13,94,56,23,30.44,30.30,8,2,11,0.00
2013-2-19,54,44,34,52,39,25,97,82,59,30.30,29.87,12,4,24,0.07
2013-2-20,53,42,30,40,20,11,96,46,20,30.17,29.97,11,4,19,0.01
2013-2-21,55,41,25,25,19,14,84,45,22,30.29,30.13,8,3,12,0.00
2013-2-22,42,37,32,36,32,21,98,84,43,30.38,30.17,7,3,12,0.45
2013-2-23,44,40,36,44,40,36,99,98,98,30.16,29.84,7,2,10,0.96
2013-2-24,63,51,42,47,38,26,99,68,28,30.06,29.82,9,3,14,0.15
2013-2-25,43,38,33,31,25,21,77,60,45,30.26,30.06,11,4,17,0.00
2013-2-26,58,46,35,58,42,26,100,88,66,30.17,29.57,10,5,19,1.08
2013-2-27,62,50,42,46,41,35,97,72,39,29.79,29.63,11,5,19,0.01
2013-2-28,50,43,36,40,32,25,96,68,39,29.87,29.71,10,3,22,0.00
2013-3-1,50,41,31,31,28,26,85,61,40,29.92,29.84,10,4,17,0.00
2013-3-2,50,39,27,30,25,20,92,61,38,29.94,29.82,9,3,14,0.00
2013-3-3,48,37,28,22,19,16,69,50,32,30.00,29.85,11,6,19,0.00
2013-3-4,51,37,28,23,16,11,73,44,21,30.13,29.99,11,5,20,0.00
2013-3-5,52,42,31,45,35,23,97,79,41,30.11,29.60,8,2,14,0.32
2013-3-6,46,42,38,44,34,26,99,74,51,30.03,29.50,21,10,32,0.01
2013-3-7,51,43,35,31,29,26,77,58,43,30.24,30.03,13,7,21,0.00
2013-3-8,55,45,35,29,25,21,68,48,28,30.29,30.16,14,8,28,0.00
2013-3-9,63,47,35,34,28,24,83,51,24,30.35,30.25,10,3,13,0.00
2013-3-10,68,49,30,38,28,21,96,55,18,30.34,30.23,6,2,11,0.00
2013-3-11,71,55,36,53,43,27,90,67,44,30.27,29.97,11,4,19,0.00
2013-3-12,73,62,51,63,55,35,98,78,45,29.96,29.75,11,6,24,0.41
2013-3-13,59,48,35,36,27,19,89,48,25,30.14,29.95,13,6,21,0.00
2013-3-14,54,42,31,23,18,13,59,41,20,30.26,30.11,13,6,21,0.00
2013-3-15,65,48,27,35,26,17,83,46,28,30.20,29.91,11,4,18,0.00
2013-3-16,79,63,49,50,43,35,71,51,31,29.91,29.64,12,5,24,0.00
2013-3-17,61,52,42,54,45,38,96,77,60,30.21,29.83,13,7,21,0.00
2013-3-18,44,41,38,42,40,37,98,97,90,30.23,29.92,8,4,13,0.24
2013-3-19,68,53,41,47,34,9,99,61,16,30.02,29.83,15,5,21,0.01
2013-3-20,57,48,36,28,16,8,70,29,17,30.14,29.82,8,3,14,0.00
2013-3-21,46,40,33,32,20,9,78,46,27,29.99,29.73,14,7,20,0.00
2013-3-22,53,39,24,24,15,10,68,40,20,30.10,29.97,9,4,17,0.00
2013-3-23,57,46,37,33,27,19,79,49,28,30.07,29.92,4,1,7,0.00
2013-3-24,41,38,34,39,35,30,97,90,76,29.96,29.58,13,5,19,0.72
2013-3-25,51,41,36,38,31,21,97,70,37,29.82,29.57,15,5,28,0.00
2013-3-26,50,43,34,29,26,23,72,52,39,30.11,29.82,11,6,18,0.00
2013-3-27,54,44,33,27,24,19,76,48,28,30.24,30.12,13,7,31,0.00
2013-3-28,58,45,33,28,24,21,70,46,25,30.31,30.16,13,6,17,0.00
2013-3-29,60,45,28,33,27,22,92,54,24,30.34,30.19,9,2,14,0.00
2013-3-30,69,52,38,44,35,25,88,58,25,30.26,30.09,6,1,10,0.00
2013-3-31,69,57,48,58,51,43,98,81,61,30.11,29.82,12,3,19,0.50
2013-4-1,74,62,54,55,46,35,99,64,27,29.95,29.80,12,4,17,0.01
2013-4-2,62,50,37,37,28,21,76,45,22,30.18,29.97,11,4,19,0.00
2013-4-3,62,50,41,32,23,17,65,37,21,30.31,30.15,8,4,14,0.00
2013-4-4,51,43,40,41,33,23,97,70,43,30.39,29.95,12,6,17,0.97
2013-4-5,64,49,40,50,43,39,98,83,50,30.03,29.87,10,4,13,0.05
2013-4-6,66,53,38,42,33,23,97,53,25,30.30,30.03,11,4,17,0.00
2013-4-7,73,56,35,47,39,32,92,58,33,30.31,30.12,9,3,18,0.00
2013-4-8,81,67,53,59,53,47,95,64,37,30.19,30.05,10,4,19,0.00
2013-4-9,87,72,58,62,57,52,97,62,32,30.18,30.04,9,4,14,0.00
2013-4-10,89,75,60,64,59,56,93,62,35,30.09,29.94,10,5,17,0.00
2013-4-11,84,73,63,67,61,57,93,69,43,30.00,29.80,10,6,17,0.00
2013-4-12,82,73,67,70,64,48,97,75,47,29.82,29.59,12,7,24,0.42
2013-4-13,76,65,54,47,41,36,75,43,25,30.00,29.75,9,4,12,0.00
2013-4-14,82,65,45,55,45,37,98,56,22,30.11,30.00,6,2,11,0.00
2013-4-15,73,66,60,59,56,51,86,70,56,30.22,30.02,10,4,16,0.00
2013-4-16,78,64,54,62,58,53,99,81,48,30.32,30.20,5,1,7,0.00
2013-4-17,83,70,54,66,61,54,99,75,50,30.24,30.09,5,2,11,0.00
2013-4-18,81,71,60,65,60,56,95,71,45,30.20,30.05,9,4,13,0.00
2013-4-19,84,72,66,68,66,61,98,81,56,30.05,29.71,15,7,28,0.37
2013-4-20,66,57,46,65,41,28,98,61,27,30.28,29.82,11,4,17,0.08
2013-4-21,63,52,40,44,40,37,97,68,42,30.51,30.29,11,5,19,0.00
2013-4-22,63,50,37,46,40,32,89,70,45,30.51,30.29,12,8,18,0.00
2013-4-23,69,56,48,51,47,45,92,76,49,30.29,30.14,10,4,18,0.06
2013-4-24,80,63,44,58,52,43,98,71,40,30.17,29.97,10,4,19,0.00
2013-4-25,73,63,51,57,49,39,89,62,36,30.28,30.01,11,4,16,0.00
2013-4-26,74,60,47,54,43,32,98,61,23,30.43,30.29,11,2,16,0.00
2013-4-27,75,63,51,50,45,39,84,55,30,30.40,30.26,5,2,11,0.00
2013-4-28,64,59,55,57,50,42,97,73,57,30.27,30.12,7,2,10,0.56
2013-4-29,75,63,55,66,60,54,100,91,65,30.12,29.97,4,1,7,1.25
2013-4-30,67,62,59,63,60,56,99,91,74,30.17,30.00,8,4,12,0.01
2013-5-1,62,59,58,59,57,56,97,92,86,30.33,30.16,12,7,20,0.01
2013-5-2,64,60,54,58,56,51,96,88,79,30.35,30.27,10,5,16,0.00
2013-5-3,72,58,49,57,50,43,97,75,47,30.28,30.18,10,5,19,0.00
2013-5-4,67,56,50,54,49,44,90,78,61,30.23,30.09,14,8,24,0.00
2013-5-5,61,56,50,57,52,47,90,86,80,30.11,30.01,11,7,21,0.00
2013-5-6,70,62,57,66,60,55,99,95,85,30.02,29.83,9,4,14,1.76
2013-5-7,74,61,50,61,54,49,100,81,42,29.96,29.86,9,2,14,0.01
2013-5-8,75,62,52,61,56,50,99,82,54,30.02,29.92,8,2,14,0.17
2013-5-9,83,68,54,63,58,54,100,74,41,30.06,29.98,6,2,10,0.01
2013-5-10,87,73,55,64,60,54,99,68,38,30.06,29.94,8,3,19,0.00
2013-5-11,85,74,67,70,64,59,96,71,45,29.96,29.78,12,4,19,0.13
2013-5-12,76,68,56,65,51,36,94,60,29,30.02,29.78,10,5,21,0.00
2013-5-13,68,58,47,43,37,30,76,48,26,30.18,30.02,11,3,14,0.00
2013-5-14,73,58,40,46,40,31,96,57,25,30.27,30.09,8,2,12,0.00
2013-5-15,90,72,53,64,55,44,81,59,33,30.09,29.88,9,4,17,0.00
2013-5-16,87,76,63,64,60,54,91,60,36,29.96,29.88,8,3,13,0.00
2013-5-17,90,76,62,66,62,57,96,65,36,30.07,29.96,4,1,7,0.00
2013-5-18,81,72,64,71,66,62,96,83,63,30.14,30.06,7,2,11,0.23
2013-5-19,80,70,67,74,68,65,99,92,70,30.15,30.06,13,2,13,0.39
2013-5-20,76,70,68,74,70,67,100,97,87,30.12,30.03,6,2,12,0.92
2013-5-21,84,74,69,74,70,67,99,88,67,30.05,29.95,7,2,10,0.00
2013-5-22,86,76,69,73,69,66,97,80,53,30.02,29.90,9,4,14,0.00
2013-5-23,84,73,67,72,69,65,99,89,57,29.96,29.82,10,2,14,1.33
2013-5-24,71,66,55,68,53,36,99,68,31,30.19,29.80,16,6,27,0.01
2013-5-25,76,60,42,50,41,34,93,55,24,30.29,30.13,8,3,14,0.00
2013-5-26,76,62,49,53,46,38,89,58,29,30.29,30.17,6,1,8,0.00
2013-5-27,83,67,49,60,52,47,99,65,32,30.29,30.16,6,2,11,0.00
2013-5-28,86,73,59,69,62,54,92,69,51,30.26,30.14,8,3,17,0.00
2013-5-29,88,76,62,68,64,60,97,69,46,30.24,30.16,8,3,17,0.00
2013-5-30,90,77,63,70,65,58,97,68,40,30.27,30.17,6,2,12,0.00
2013-5-31,90,79,67,71,67,63,96,70,41,30.22,30.09,6,3,12,0.00
2013-6-1,91,80,68,71,68,63,96,69,43,30.14,30.02,8,4,14,0.00
2013-6-2,90,79,69,71,67,63,94,69,41,30.06,29.90,9,5,18,0.00
2013-6-3,84,75,68,75,71,67,98,89,67,29.96,29.82,8,2,12,0.12
2013-6-4,83,72,65,68,64,60,99,78,49,30.10,29.92,9,2,12,0.00
2013-6-5,84,72,61,63,60,54,98,69,40,30.15,30.02,7,2,12,0.00
2013-6-6,76,71,66,74,67,58,99,88,68,30.06,29.83,7,3,12,1.38
2013-6-7,79,72,69,78,71,69,100,98,89,29.85,29.43,18,3,27,3.27
2013-6-8,86,75,68,73,70,66,100,85,55,30.09,29.82,8,2,14,0.09
2013-6-9,89,77,66,75,70,66,99,81,56,30.16,30.05,7,2,16,0.16
2013-6-10,83,75,72,80,73,71,99,94,76,30.10,29.90,8,4,17,0.81
2013-6-11,87,78,70,72,68,63,97,74,46,29.95,29.88,9,4,17,0.00
2013-6-12,92,79,64,76,70,64,98,75,51,29.96,29.85,6,2,13,0.00
2013-6-13,97,81,69,78,72,62,95,76,39,29.85,29.58,29,3,51,0.14
2013-6-14,81,72,63,68,59,56,94,65,43,30.00,29.71,11,5,19,0.01
2013-6-15,86,73,57,66,61,56,99,70,39,30.12,30.01,6,2,13,0.00
2013-6-16,88,77,65,71,64,55,80,64,50,30.13,30.00,10,4,20,0.00
2013-6-17,88,79,71,75,69,65,86,73,56,30.03,29.92,6,3,13,0.00
2013-6-18,86,76,70,75,71,68,99,86,64,29.96,29.73,11,3,24,0.82
2013-6-19,81,73,66,71,67,65,99,83,64,30.11,29.85,8,3,14,0.01
2013-6-20,84,73,63,67,62,55,98,73,47,30.25,30.12,8,3,12,0.00
2013-6-21,85,72,56,68,60,52,95,68,37,30.26,30.17,8,3,12,0.00
2013-6-22,82,73,70,75,70,68,99,90,70,30.21,30.11,9,4,14,0.53
2013-6-23,86,77,69,77,72,69,100,87,64,30.21,30.13,4,1,7,0.03
2013-6-24,88,78,72,78,73,71,97,85,63,30.20,30.08,8,3,14,0.05
2013-6-25,89,78,71,78,72,69,96,82,63,30.13,30.00,8,3,14,0.01
2013-6-26,93,78,69,78,72,66,99,83,52,30.03,29.87,12,3,17,0.49
2013-6-27,91,78,68,78,73,68,100,85,59,29.91,29.71,8,4,17,0.00
2013-6-28,93,80,72,78,73,68,98,81,48,29.75,29.56,13,4,21,1.06
2013-6-29,87,77,69,76,72,69,100,87,65,29.73,29.60,10,2,10,0.73
2013-6-30,87,77,71,78,73,70,99,88,68,29.87,29.71,10,3,14,0.31
2013-7-1,84,76,71,77,73,71,100,92,74,30.00,29.84,8,3,14,0.77
2013-7-2,79,74,72,75,73,71,99,96,85,30.19,29.99,8,3,17,0.65
2013-7-3,86,78,73,80,75,73,100,93,71,30.25,30.16,7,3,12,0.36
2013-7-4,90,80,73,78,74,69,100,83,52,30.28,30.19,8,3,12,0.06
2013-7-5,91,81,71,78,74,70,99,81,55,30.28,30.16,6,2,11,0.00
2013-7-6,90,80,73,77,73,70,97,80,58,30.25,30.13,6,2,12,0.00
2013-7-7,91,81,70,76,73,68,99,77,54,30.19,30.06,9,3,14,0.00
2013-7-8,88,79,72,79,74,71,98,85,67,30.16,30.07,7,2,10,0.24
2013-7-9,90,78,72,81,74,71,100,89,64,30.16,30.07,10,2,12,0.00
2013-7-10,90,80,74,81,75,70,97,85,63,30.10,29.94,8,3,14,0.04
2013-7-11,86,77,73,77,74,71,99,91,72,29.99,29.88,7,2,11,0.24
2013-7-12,78,74,72,74,72,70,100,94,83,30.02,29.87,6,2,10,0.09
2013-7-13,81,75,71,78,73,70,98,94,83,30.18,30.01,7,2,10,0.25
2013-7-14,89,79,70,77,73,69,100,85,58,30.29,30.19,7,2,17,0.01
2013-7-15,92,80,69,77,72,68,100,79,52,30.32,30.24,5,1,8,0.00
2013-7-16,95,82,69,78,73,68,99,76,45,30.27,30.17,5,1,8,0.00
2013-7-17,95,85,76,78,74,69,97,72,45,30.22,30.10,6,2,9,0.00
2013-7-18,95,84,76,79,75,72,97,76,50,30.14,30.03,5,1,10,0.00
2013-7-19,94,84,76,80,75,70,97,76,53,30.08,29.97,8,3,14,0.00
2013-7-20,91,82,76,78,74,72,91,77,57,30.02,29.91,7,4,13,0.00
2013-7-21,92,81,74,78,74,71,95,80,58,29.99,29.89,9,2,12,0.02
2013-7-22,91,80,72,77,74,72,99,82,60,29.94,29.81,7,2,12,0.01
2013-7-23,92,83,75,76,73,70,92,73,50,29.84,29.71,7,3,12,0.00
2013-7-24,92,80,71,75,72,68,98,79,47,29.84,29.71,19,2,35,0.68
2013-7-25,82,75,69,73,69,66,98,84,65,30.03,29.80,8,4,12,0.02
2013-7-26,86,74,62,69,65,61,99,75,48,30.10,30.02,5,1,7,0.00
2013-7-27,90,75,66,75,69,65,99,84,53,30.06,29.94,6,2,10,0.14
2013-7-28,89,78,70,76,72,68,100,84,55,29.99,29.91,6,2,10,0.01
2013-7-29,89,79,71,73,69,64,94,73,49,30.14,29.98,7,2,12,0.00
2013-7-30,88,77,64,72,66,62,94,72,46,30.21,30.12,5,1,11,0.00
2013-7-31,85,77,72,76,72,70,97,86,67,30.14,30.00,7,1,10,0.18
2013-8-1,87,76,71,76,72,70,100,87,65,30.01,29.84,9,2,14,0.10
2013-8-2,90,79,69,75,71,68,100,80,52,30.01,29.90,5,1,9,0.32
2013-8-3,92,80,72,78,74,71,98,85,53,30.01,29.89,10,2,14,0.21
2013-8-4,86,76,68,74,68,59,100,79,41,30.02,29.87,10,3,13,0.01
2013-8-5,85,74,63,68,64,58,99,73,44,30.09,30.00,5,1,8,0.00
2013-8-6,85,76,69,71,68,64,95,76,56,30.06,29.99,7,2,14,0.07
2013-8-7,89,78,68,73,69,66,97,76,50,30.10,30.02,7,2,12,0.00
2013-8-8,92,81,71,75,72,68,98,74,49,30.06,29.98,5,2,10,0.00
2013-8-9,94,84,75,78,75,72,97,76,52,30.04,29.97,9,4,17,0.00
2013-8-10,96,82,75,81,76,72,98,82,51,30.09,29.98,13,2,28,0.26
2013-8-11,96,82,72,78,74,72,100,80,50,30.10,29.99,5,1,10,0.00
2013-8-12,94,83,74,77,73,67,99,74,43,30.03,29.92,7,2,12,0.00
2013-8-13,91,81,73,79,75,72,100,84,59,29.96,29.76,12,2,21,0.58
2013-8-14,78,73,62,74,66,59,91,78,63,30.09,29.80,9,4,12,0.00
2013-8-15,79,67,60,63,59,55,95,76,45,30.16,30.08,8,2,13,0.00
2013-8-16,73,67,59,62,60,58,98,82,62,30.18,30.09,7,2,10,0.00
2013-8-17,73,68,64,73,67,62,100,95,88,30.18,30.11,7,4,12,0.54
2013-8-18,84,75,69,73,70,67,100,86,60,30.20,30.11,6,3,12,0.00
2013-8-19,75,70,67,72,69,66,100,95,86,30.20,30.09,8,1,8,0.48
2013-8-20,84,76,68,75,72,68,100,88,67,30.18,30.10,4,1,6,0.00
2013-8-21,89,77,71,78,73,70,99,89,63,30.22,30.10,9,1,17,0.36
2013-8-22,92,80,69,77,71,65,100,79,45,30.15,29.97,7,2,10,0.01
2013-8-23,90,79,70,74,71,68,99,79,50,30.05,29.90,10,3,14,0.00
2013-8-24,84,74,66,68,63,58,94,71,42,30.30,30.05,10,5,14,0.00
2013-8-25,82,70,60,65,61,55,99,75,42,30.39,30.28,9,3,17,0.00
2013-8-26,85,70,54,63,58,53,100,71,35,30.32,30.11,6,1,8,0.00
2013-8-27,91,75,61,72,66,59,96,75,45,30.12,29.94,5,1,7,0.00
2013-8-28,85,78,70,76,73,69,99,85,67,29.97,29.85,6,1,10,0.00
2013-8-29,90,80,73,75,73,70,92,78,58,30.01,29.82,9,4,16,0.00
2013-8-30,90,76,66,70,67,62,100,76,42,30.06,29.93,4,1,9,0.00
2013-8-31,91,78,66,74,70,65,100,77,51,29.97,29.86,7,2,14,0.00
2013-9-1,92,79,72,79,74,71,100,86,56,29.89,29.77,11,3,17,2.98
2013-9-2,91,79,70,80,73,70,100,84,54,29.88,29.79,5,2,10,0.01
2013-9-3,90,79,72,78,74,71,99,85,59,29.92,29.79,6,1,10,0.02
2013-9-4,86,77,69,73,70,68,99,83,58,30.08,29.92,8,2,12,0.00
2013-9-5,89,76,66,71,66,57,99,74,36,30.08,30.01,6,2,13,0.00
2013-9-6,84,73,65,67,62,58,95,71,46,30.17,30.07,8,4,12,0.00
2013-9-7,85,71,58,66,62,57,99,76,46,30.14,29.98,4,1,7,0.00
2013-9-8,88,74,62,68,65,60,99,75,40,29.98,29.90,6,1,10,0.00
2013-9-9,89,77,65,72,68,64,100,78,50,30.15,29.98,5,1,11,0.00
2013-9-10,91,78,66,73,69,65,99,75,46,30.23,30.13,5,1,7,0.00
2013-9-11,91,78,67,73,68,61,99,74,42,30.20,30.07,6,2,10,0.00
2013-9-12,93,79,71,78,71,67,93,77,51,30.07,29.79,6,2,11,0.06
2013-9-13,86,76,67,71,64,56,94,68,42,29.87,29.74,9,3,13,0.00
2013-9-14,77,67,58,59,53,47,90,62,39,30.14,29.87,11,4,18,0.00
2013-9-15,82,67,52,62,57,52,98,74,45,30.25,30.11,3,1,7,0.00
2013-9-16,86,74,64,74,65,58,100,77,40,30.18,30.02,10,3,14,0.25
2013-9-17,78,68,58,61,56,50,88,68,41,30.32,30.19,11,5,17,0.00
2013-9-18,75,61,51,56,52,48,97,75,43,30.32,30.18,6,2,10,0.00
2013-9-19,78,66,53,63,57,52,99,78,48,30.20,30.09,4,1,6,0.00
2013-9-20,72,67,63,67,64,61,99,91,84,30.11,29.97,5,1,8,0.35
2013-9-21,78,71,66,72,68,65,100,93,77,29.97,29.73,7,2,12,0.84
2013-9-22,79,69,60,70,62,56,100,81,50,29.89,29.70,13,5,21,1.29
2013-9-23,73,63,54,57,54,51,96,75,50,30.08,29.89,9,3,12,0.00
2013-9-24,76,62,51,61,56,50,100,82,54,30.11,29.95,5,0,7,0.00
2013-9-25,76,64,51,63,58,51,100,84,57,29.97,29.87,5,1,10,0.01
2013-9-26,78,67,58,63,58,51,97,76,44,30.03,29.87,9,3,14,0.00
2013-9-27,76,63,55,62,57,53,100,82,50,30.19,30.04,10,3,17,0.00
2013-9-28,74,62,52,59,55,51,99,80,54,30.26,30.16,10,4,19,0.01
2013-9-29,75,63,54,58,55,53,99,80,48,30.17,30.03,9,3,14,0.01
2013-9-30,77,65,52,62,56,52,100,76,44,30.10,30.00,8,1,0,0.00
2013-10-1,83,65,50,64,57,50,100,78,43,30.13,30.01,4,1,10,0.01
2013-10-2,86,70,56,66,60,55,100,76,41,30.12,30.03,5,1,12,0.00
2013-10-3,86,71,57,69,62,56,100,78,46,30.13,30.04,6,1,11,0.00
2013-10-4,87,74,62,68,65,61,98,76,44,30.13,30.03,6,1,12,0.00
2013-10-5,90,74,60,71,65,60,100,76,41,30.11,30.03,5,1,9,0.00
2013-10-6,84,73,63,77,68,61,99,87,65,30.07,29.94,7,2,12,0.06
2013-10-7,76,72,66,74,70,60,99,95,80,29.98,29.85,8,3,12,0.24
2013-10-8,66,60,56,60,51,47,87,73,62,30.20,29.97,13,8,20,0.01
2013-10-9,62,59,55,58,54,51,98,85,75,30.18,30.08,13,9,19,0.10
2013-10-10,60,57,54,60,56,54,100,98,95,30.08,29.94,12,7,18,0.34
2013-10-11,66,62,60,62,60,59,98,93,84,29.97,29.91,8,4,11,0.00
2013-10-12,70,65,62,66,63,60,96,93,85,30.08,29.95,7,3,10,0.01
2013-10-13,68,65,63,65,64,62,99,95,88,30.19,30.07,9,6,14,0.06
2013-10-14,67,63,58,64,61,57,100,94,84,30.24,30.17,10,6,14,0.11
2013-10-15,72,63,53,63,58,53,100,88,70,30.20,30.06,8,4,11,0.01
2013-10-16,71,66,62,64,62,61,98,90,76,30.06,29.96,4,1,7,0.00
2013-10-17,78,68,59,67,63,58,100,86,65,29.97,29.84,7,2,16,0.00
2013-10-18,69,64,57,65,55,48,96,75,52,30.04,29.87,8,2,12,0.00
2013-10-19,71,64,61,67,62,57,98,92,84,29.99,29.82,4,1,7,0.02
2013-10-20,65,56,44,60,47,40,97,74,41,30.14,29.90,8,3,17,0.00
2013-10-21,67,52,38,53,46,37,100,80,47,30.19,30.02,4,0,6,0.01
2013-10-22,65,57,50,59,55,49,99,93,79,30.02,29.82,4,0,6,0.00
2013-10-23,67,59,49,60,49,34,100,72,34,30.00,29.69,12,5,19,0.00
2013-10-24,59,48,37,40,35,31,87,64,36,30.19,30.01,9,3,14,0.00
2013-10-25,56,46,35,40,33,27,91,62,34,30.37,30.20,9,4,17,0.00
2013-10-26,60,44,28,41,33,27,99,71,34,30.38,30.09,7,2,13,0.00
2013-10-27,68,54,41,47,41,37,95,65,37,30.14,30.05,7,2,12,0.00
2013-10-28,69,55,42,56,49,40,98,84,59,30.27,30.14,3,0,5,0.00
2013-10-29,73,58,48,58,53,47,100,84,54,30.35,30.25,5,0,7,0.00
2013-10-30,73,61,52,61,56,50,100,85,60,30.32,30.17,5,1,12,0.00
2013-10-31,76,65,53,64,58,52,99,79,53,30.20,29.94,8,2,17,0.00
2013-11-1,75,69,63,69,66,62,100,90,72,29.93,29.68,9,4,19,0.88
2013-11-2,72,63,56,62,52,41,99,72,38,29.92,29.69,11,3,17,0.00
2013-11-3,63,52,40,42,39,36,90,64,37,30.38,29.93,10,4,19,0.00
2013-11-4,56,44,36,38,34,30,93,69,40,30.57,30.38,9,3,14,0.00
2013-11-5,58,49,39,50,43,33,89,79,66,30.56,30.44,7,4,12,0.00
2013-11-6,72,58,46,58,52,46,99,83,53,30.44,30.13,4,1,8,0.00
2013-11-7,71,61,47,64,54,32,100,80,49,30.12,29.91,12,4,19,0.08
2013-11-8,57,46,33,34,30,23,90,56,28,30.34,30.11,9,4,17,0.00
2013-11-9,60,45,30,38,33,28,98,67,32,30.40,30.20,6,2,12,0.00
2013-11-10,73,54,36,41,36,28,95,57,25,30.24,30.05,8,3,16,0.00
2013-11-11,59,46,32,36,31,27,93,61,30,30.37,30.16,6,1,12,0.00
2013-11-12,63,42,32,42,32,18,98,71,35,30.42,30.07,17,5,26,0.01
2013-11-13,45,35,25,23,18,14,87,53,28,30.55,30.43,11,4,15,0.00
2013-11-14,58,39,21,30,23,19,95,61,23,30.49,30.35,8,2,12,0.01
2013-11-15,64,46,27,50,37,24,93,75,41,30.38,30.23,4,0,7,0.01
2013-11-16,68,56,50,59,54,48,98,90,71,30.28,30.21,6,1,8,0.00
2013-11-17,72,62,54,67,59,53,100,90,66,30.24,29.90,6,1,10,0.08
2013-11-18,76,67,56,68,53,30,99,65,32,29.95,29.78,13,5,20,0.02
2013-11-19,57,50,41,31,29,26,65,45,31,30.34,29.95,12,6,17,0.00
2013-11-20,53,45,38,40,33,28,83,63,47,30.46,30.34,11,6,17,0.00
2013-11-21,62,51,42,49,44,38,90,78,61,30.52,30.40,9,3,11,0.00
2013-11-22,72,60,47,61,55,46,97,84,64,30.41,30.09,8,2,14,0.03
2013-11-23,63,56,43,61,44,21,99,67,34,30.18,30.04,9,4,13,0.04
2013-11-24,43,34,24,23,10,2,64,38,23,30.57,30.18,13,7,21,0.00
2013-11-25,43,31,18,20,13,5,87,51,22,30.63,30.40,4,1,10,0.00
2013-11-26,66,47,35,66,39,17,100,76,47,30.41,29.57,8,4,14,0.75
2013-11-27,66,42,31,66,39,17,100,88,56,30.17,29.51,13,7,24,1.04
2013-11-28,44,32,23,25,20,15,90,62,35,30.52,30.18,10,2,14,0.00
2013-11-29,50,35,22,32,24,21,97,70,35,30.67,30.50,9,2,14,0.01
2013-11-30,49,37,28,34,29,23,91,74,54,30.67,30.40,8,3,12,0.00
2013-12-1,59,42,28,39,33,27,98,73,34,30.39,30.04,7,1,10,0.00
2013-12-2,59,45,37,45,40,35,95,83,56,30.04,29.84,4,0,7,0.00
2013-12-3,59,46,31,48,40,30,99,82,59,30.01,29.89,5,1,10,0.00
2013-12-4,66,57,52,58,53,47,95,87,72,30.11,30.00,4,0,7,0.00
2013-12-5,68,61,52,64,60,51,100,95,84,30.16,30.05,5,2,10,0.01
2013-12-6,78,70,64,65,64,62,95,80,60,30.09,29.97,13,6,22,0.00
2013-12-7,69,50,43,66,45,33,96,83,68,30.48,29.99,13,8,21,0.19
2013-12-8,42,36,34,34,33,29,98,88,65,30.48,30.33,11,6,18,0.19
2013-12-9,47,41,35,47,41,34,100,100,98,30.32,30.09,4,1,7,0.27
2013-12-10,47,44,30,47,42,26,100,93,69,30.36,29.93,12,4,12,0.66
2013-12-11,49,35,23,32,26,20,97,73,34,30.49,30.31,5,1,7,0.00
2013-12-12,45,32,25,27,22,10,95,70,26,30.44,30.29,11,2,14,0.00
2013-12-13,52,31,21,31,22,16,95,74,27,30.43,30.30,7,1,13,0.00
2013-12-14,48,41,36,43,37,28,99,86,49,30.33,29.80,8,2,10,0.99
2013-12-15,54,44,36,45,38,27,100,79,47,30.09,29.72,11,4,17,0.03
2013-12-16,55,40,28,36,31,25,96,74,43,30.20,30.09,6,1,10,0.00
2013-12-17,60,46,30,40,35,28,98,69,43,30.15,29.90,16,3,24,0.00
2013-12-18,49,40,28,39,24,16,86,57,27,30.32,30.04,9,4,14,0.00
2013-12-19,62,43,25,32,26,23,94,58,24,30.35,30.23,8,2,14,0.00
2013-12-20,67,54,40,54,45,32,91,72,52,30.27,30.12,9,2,13,0.00
2013-12-21,73,61,47,66,56,45,98,85,66,30.17,30.06,9,3,17,0.00
2013-12-22,79,71,64,68,65,62,97,83,61,30.11,30.03,13,6,20,0.10
2013-12-23,68,61,48,68,60,45,100,97,90,30.15,30.00,15,4,18,1.72
2013-12-24,47,42,31,45,30,13,94,64,45,30.48,30.13,11,7,17,0.00
2013-12-25,39,30,23,20,14,9,85,55,30,30.59,30.43,8,2,10,0.00
2013-12-26,50,36,24,35,29,20,93,78,43,30.43,30.26,4,1,7,0.05
2013-12-27,52,36,25,28,24,19,90,67,28,30.48,30.39,4,1,7,0.00
2013-12-28,59,44,23,39,28,22,97,61,27,30.44,30.17,6,1,3,0.01
2013-12-29,65,50,44,65,49,40,100,95,80,30.17,29.68,10,3,16,2.02
2013-12-30,55,45,34,47,39,34,100,82,58,30.16,29.94,6,2,10,0.01
2013-12-31,51,42,32,37,31,22,89,66,35,30.38,30.14,9,3,14,0.00
2014-1-1,52,39,30,35,29,23,96,71,33,30.45,30.17,5,1,10,0.00
2014-1-2,49,44,38,47,40,34,98,88,74,30.17,29.58,10,1,19,0.33